Temp
11 11 11 11 10 10 10 9 10 10 10 11 11 11 11 10 10 10 9 9 9 8
12 12 11 11 11 10 10 10 10 10 10 10 10 9 9 9 9 8 9 8 8 7
12 11 11 11 11 11 10 10 10 10 10 9 9 9 8 8 8 8 7 7 7 6
12 11 11 11 11 11 10 10 10 9 9 9 8 7 8 7 7 7 6 6 6 6
11 11 11 11 10 10 10 10 9 8 8 7 7 7 7 7 6 6 6 5 5 5
11 11 11 11 10 10 10 9 8 7 6 6 6 6 6 6 6 6 5 5 4 4
11 11 11 10 10 10 9 9 8 5 5 4 5 6 5 5 5 5 4 4 4 3
10 10 11 10 9 9 7 7 5 6 3 4 5 5 5 4 4 4 4 3 3 2
9 10 10 9 8 5 6 4 4 4 3 4 4 5 4 4 4 3 3 3 2 2
9 8 8 6 8 4 4 4 3 3 3 4 4 3 4 3 3 3 2 2 2 1
7 6 5 5 4 4 2 3 2 2 3 2 3 3 3 2 2 2 1 1 1 1
6 5 4 2 2 2 2 2 2 2 2 2 2 2 2 2 1 1 1 0 -0 -1
4 3 3 2 2 2 1 1 1 2 2 2 1 1 1 1 1 0 0 -1 -1 -2
2 1 1 1 1 1 1 1 1 1 1 1 1 0 0 0 -0 -1 -1 -1 -1 -2
Height
1540 1543 1546 1549 1553 1557 1560 1562 1565 1567 1568 1570 1571 1571 1571 1571 1571 1572 1571 1571 1571 1570
1535 1538 1541 1546 1550 1553 1556 1558 1561 1563 1565 1567 1567 1568 1568 1569 1570 1569 1569 1569 1569 1568
1531 1534 1538 1542 1545 1549 1551 1554 1557 1560 1561 1563 1564 1565 1566 1567 1568 1568 1568 1567 1566 1566
1525 1529 1533 1537 1540 1543 1547 1549 1552 1555 1557 1559 1560 1562 1563 1565 1566 1567 1566 1565 1564 1563
1518 1522 1526 1531 1535 1539 1542 1545 1548 1551 1553 1555 1556 1559 1561 1561 1564 1563 1563 1562 1561 1560
1510 1516 1521 1525 1529 1532 1535 1538 1542 1546 1549 1550 1552 1555 1558 1559 1561 1560 1561 1559 1559 1557
1503 1509 1514 1518 1522 1526 1528 1532 1536 1540 1543 1548 1550 1551 1555 1556 1558 1557 1558 1557 1555 1554
1497 1502 1507 1512 1514 1520 1521 1528 1532 1537 1541 1546 1548 1549 1551 1553 1553 1554 1554 1554 1552 1549
1491 1498 1501 1505 1510 1514 1519 1525 1531 1534 1540 1544 1545 1547 1549 1550 1550 1551 1551 1551 1548 1546
1486 1492 1497 1502 1507 1514 1518 1521 1529 1532 1538 1541 1543 1545 1546 1548 1548 1547 1547 1546 1544 1542
1483 1488 1493 1499 1504 1509 1516 1520 1526 1531 1535 1538 1540 1542 1544 1545 1545 1544 1542 1541 1539 1537
1481 1486 1490 1497 1502 1508 1515 1518 1524 1529 1532 1535 1538 1540 1542 1541 1541 1541 1539 1537 1535 1533
1478 1484 1489 1496 1501 1508 1514 1518 1523 1527 1530 1533 1534 1536 1537 1538 1537 1536 1535 1534 1532 1529
1477 1483 1490 1495 1501 1507 1512 1517 1521 1525 1528 1530 1531 1532 1533 1533 1532 1531 1530 1529 1527 1525
Wind_Speed
27 26 25 23 22 21 20 19 18 17 14 10 10 9 9 7 7 6 6 7 8 10
27 25 25 22 20 20 21 20 19 19 16 15 13 12 8 8 8 6 7 8 9 10
29 27 24 24 25 25 23 22 21 20 21 17 14 12 10 9 8 7 6 7 9 11
33 31 31 31 29 27 26 25 26 24 21 18 15 13 11 9 8 8 8 9 11 12
37 35 35 34 33 32 30 28 27 25 23 19 16 14 12 10 8 7 9 10 12 13
40 40 37 36 36 35 34 32 30 28 23 19 15 13 13 10 9 8 9 11 12 14
41 42 40 39 38 39 38 36 33 29 21 16 15 13 11 10 9 8 10 12 14 16
41 42 42 43 41 42 36 32 26 21 16 17 15 13 12 9 7 8 11 14 16 18
42 39 40 38 40 35 31 25 23 19 18 18 15 13 9 8 7 10 13 14 16 18
35 33 38 33 30 28 25 23 20 20 20 17 14 10 6 6 9 12 14 16 18 18
36 34 31 31 30 26 24 23 21 21 19 15 10 7 6 8 11 13 15 17 19 20
33 33 32 28 26 25 25 25 24 20 15 11 8 7 8 10 12 14 16 17 19 21
31 29 29 28 29 29 26 24 20 17 13 9 7 7 10 12 13 15 16 16 17 19
29 28 28 30 29 28 25 21 18 14 10 7 6 8 12 14 15 17 17 18 18 19
Wind_Direction
224 227 225 222 222 228 231 235 232 224 225 241 254 271 281 273 272 282 294 310 321 326
220 225 223 213 215 223 228 229 227 224 231 243 247 251 256 248 254 262 288 303 315 322
221 220 221 220 218 221 227 228 223 227 235 236 240 244 246 247 253 266 283 305 317 320
218 221 217 218 220 222 225 225 223 226 230 235 234 235 237 244 257 276 294 307 314 316
220 221 221 220 221 223 226 226 224 225 226 227 232 233 239 245 254 274 292 304 311 316
223 219 221 222 222 223 222 217 216 218 217 215 217 221 231 239 256 278 289 306 310 314
222 219 219 222 222 220 214 216 215 212 207 211 210 215 225 240 256 281 298 309 314 317
213 218 216 222 210 213 200 211 211 213 198 206 210 211 224 236 269 291 305 311 315 316
205 212 211 208 214 197 204 204 197 193 199 204 203 214 224 254 284 297 305 308 311 314
201 210 208 196 211 199 197 188 185 185 195 201 208 214 239 275 290 303 306 310 313 314
208 193 193 194 190 188 182 182 187 189 193 194 204 231 258 283 298 304 310 314 315 316
200 196 190 185 182 180 181 179 182 182 185 195 217 246 280 296 304 308 313 315 315 315
190 189 183 180 178 176 177 175 177 180 186 201 235 273 291 301 307 311 312 311 315 321
184 182 180 176 175 175 174 177 177 182 190 215 256 280 294 307 313 311 316 321 323 325